Location: Stoke Bliss
(52.2667°N, 2.5167°W)
Time: 02:03:04
(UTC+00:00)

MetOp-B - Pass Details

Date: 03 March 2021
Orbit: 819 x 821 km, 98.7° (Epoch: 11 April)

Event Time Altitude Azimuth Distance (km) Brightness Sun altitude
Exits shadow 20:49:48 83° 56° (NE) 835 4.0 -27.1°
Drops below altitude 10° 20:55:08 10° 346° (NNW) 2,432 7.1 -27.8°
Sets 20:57:30 0° 346° (NNW) 3,369 7.9 -28.1°
